Lapse_Rate
3.8 4.4 4.2 4.5 4.5 4.2 3.9 3.4 3.0 2.8 3.6 4.5 4.4 4.6 4.1 4.3 4.0 4.0 3.7 4.0 5.2 5.3
3.6 3.6 4.2 4.0 4.3 4.3 3.9 3.7 3.1 3.0 2.9 3.7 4.1 3.6 5.2 4.9 4.5 4.2 4.1 3.9 4.4 4.8
3.5 3.5 3.7 4.2 4.1 4.1 4.1 3.8 3.5 3.0 2.6 2.9 3.7 3.5 3.9 4.7 5.0 4.6 4.2 4.3 4.1 4.0
3.8 3.6 3.8 4.0 4.4 4.3 4.2 4.1 3.7 3.5 3.0 2.8 3.3 3.6 3.3 4.2 5.2 5.1 4.5 4.3 4.6 4.4
4.2 4.1 4.0 4.0 4.3 4.6 4.6 4.2 4.5 3.9 3.5 3.2 2.7 3.8 3.1 3.5 3.8 4.8 5.2 4.5 4.3 4.5
4.4 4.6 4.5 4.4 4.3 4.7 4.8 4.7 4.6 4.7 3.9 3.3 3.0 3.2 3.6 3.7 3.5 4.0 5.4 5.0 4.1 4.5
4.5 4.7 4.8 4.8 4.8 4.8 5.1 5.3 5.0 4.9 4.8 4.2 3.4 3.1 3.1 3.2 3.7 3.8 4.3 5.2 4.2 4.3
4.6 4.8 4.9 5.1 5.1 5.2 5.3 5.4 5.5 5.3 5.0 5.0 4.3 3.6 3.2 2.6 3.1 3.7 4.0 4.5 4.8 4.7
4.7 4.8 5.1 5.3 5.4 5.4 5.4 5.5 5.6 5.5 5.3 5.2 5.0 4.4 3.5 2.7 2.6 3.5 3.9 3.8 4.8 4.8
4.8 5.1 5.4 5.5 5.6 5.5 5.6 5.5 5.6 5.7 5.5 5.4 5.4 5.1 4.6 3.2 2.6 2.8 3.7 3.5 3.9 4.7
5.1 5.3 5.4 5.5 5.6 5.5 5.6 5.6 5.5 5.6 5.6 5.4 5.6 5.4 5.5 4.5 3.5 2.9 3.2 3.8 3.5 4.0
5.2 5.5 5.3 5.6 5.7 5.7 5.6 5.4 5.4 5.5 5.7 5.4 5.5 5.5 5.5 5.4 4.0 3.0 2.6 2.8 3.4 3.9
5.3 5.4 5.6 5.7 5.8 5.7 5.5 5.5 5.4 5.4 5.5 5.3 5.5 5.6 5.6 5.3 4.7 3.7 2.7 2.5 3.2 4.2
5.4 5.4 5.5 5.8 5.9 5.8 5.6 5.4 5.3 5.3 5.4 5.2 5.1 5.4 5.4 5.3 4.7 4.4 3.1 2.5 1.9 3.7
Wind_Speed
6 4 5 6 7 7 8 8 12 13 15 16 16 15 16 9 9 11 10 13 10 7
5 6 6 8 8 7 8 9 13 14 13 14 15 16 14 9 11 12 10 12 13 8
7 6 7 7 9 10 9 13 12 11 12 11 13 13 12 11 12 13 11 9 13 12
6 8 7 7 8 9 12 12 12 12 12 12 12 11 12 13 14 15 16 12 11 13
6 7 7 8 9 12 11 15 12 11 13 12 12 12 12 14 13 15 16 17 13 14
6 7 8 8 9 10 11 12 12 11 12 13 12 13 12 13 15 15 14 15 14 12
4 6 7 9 9 10 10 12 12 12 13 13 13 13 12 13 14 14 13 16 18 14
5 6 7 8 9 10 10 11 12 13 12 13 12 10 13 12 14 14 15 15 16 18
5 6 7 8 9 10 11 11 12 12 13 13 10 21 24 20 14 14 14 15 16 19
4 6 6 8 9 10 10 11 12 12 13 13 13 22 25 25 15 14 14 14 15 17
5 4 5 8 10 10 9 11 11 12 13 14 12 23 24 26 17 14 16 15 16 17
4 4 4 7 9 10 9 11 11 12 14 14 14 24 26 22 14 15 16 15 15 17
4 4 5 7 9 9 9 11 10 13 13 19 16 23 26 22 11 14 12 14 15 23
4 5 6 6 8 9 10 11 12 13 13 14 15 16 25 26 12 11 12 12 11 12
Wind_Direction
323 319 315 314 316 314 313 316 320 317 326 319 317 313 306 306 295 281 278 228 219 221
322 317 311 313 310 309 312 315 319 321 315 312 310 309 305 304 295 288 269 256 228 220
315 310 311 310 314 316 317 319 317 317 314 314 310 309 307 300 294 289 278 237 220 215
309 312 312 312 315 317 316 316 313 313 310 309 306 305 304 298 298 294 297 240 225 220
301 308 313 313 315 315 312 311 311 310 309 305 303 299 299 297 295 291 287 290 216 212
293 304 304 307 309 311 310 310 310 307 303 303 300 297 293 292 290 291 294 288 257 209
263 283 293 299 302 306 307 305 304 304 301 298 296 294 292 290 289 285 280 287 302 209
258 272 282 289 298 302 301 299 300 302 300 298 295 293 296 292 292 292 298 297 281 247
256 269 274 286 298 298 298 299 301 298 296 296 296 297 298 295 291 295 289 287 293 296
236 260 275 292 295 294 296 297 298 297 298 296 295 297 298 296 290 285 282 283 284 280
239 250 274 293 291 291 295 294 295 295 295 295 295 298 300 298 291 282 282 278 268 276
227 258 265 279 285 289 293 296 294 293 295 296 296 299 298 297 291 284 282 276 272 274
237 238 265 274 280 287 286 291 296 295 293 294 297 298 298 296 285 282 283 278 275 271
243 246 252 266 278 286 291 292 290 292 294 295 293 294 301 299 291 288 292 289 286 285